Weather in Chaybukha

Russia / Magadan District     61°48′12″N   160°24′43″E
temp.,
°C
wind,
m/s
gust,
m/s
humid.,
%
clouds,
%
prec.,
mm/h
press.,
hPa
HPBL,
m
14 april, wed
wed1423:00−22ese22782 0.0 10219
02:00−23e22770 0.0 102110
05:00−24e22832 0.0 102212
08:00−18nne338122 0.0 102273
11:00−14nne44783 0.0 1021190
14:00−11nne457486 0.0 1020265
17:00−11nne4682100 0.0 1018163
20:00−14ne3383100 0.0 101855
15 april, thu
thu1523:00−14nne3482100 0.0 101781
02:00−14ne348588 0.0 101663
05:00−13ne3487100 0.0 101665
08:00−11nne458799 0.0 1016171
11:00−8nne6782100 0.0 1015301
14:00−5ne4687100 0.4 1013371
17:00−5nne3492100 0.8 1012251
20:00−6nne2392100 0.6 101182
16 april, fri
fri1623:00−7ne2393100 0.8 101089
02:00−6ne2396100 1.4 101095
05:00−6nne2297100 3.1 101071
08:00−5nnw1196100 1.1 1010134
11:00−2sw2597100 2.4 1011364
14:00−1sw6894100 1.0 1010641
17:00−3sw698293 2.0 1012761
20:00−9sse338896 0.0 101416
17 april, sat
sat1723:00−9se339083 0.1 101417
02:00−11sse229166 0.0 101512
05:00−13ese2195100 0.0 101610
08:00−8sw119463 0.1 101677
11:00−6wsw238955 0.1 1016318
14:00−4wsw558294 0.0 1015678
17:00−4sw698588 0.1 1018563
20:00−11sse339654 0.0 101617
18 april, sun
sun1823:00−13sse329211 0.0 101714
02:00−8s2392100 0.1 101779
05:00−10s239463 0.1 101842
08:00−6s498647 0.0 1019462
11:00−3ssw6108298 0.1 1019928
14:00−1ssw61185100 0.2 10191053
17:000s41085100 0.3 1019729
20:00−1s4793100 0.1 1021198